Location: Mascot Post Office (historical)
(40.2645°N, 99.5462°W)
Time: 02:48:37
(UTC+00:00)

Cosmos 1758 Rocket - Pass Details

Date: 14 July 2020
Orbit: 601 x 637 km, 82.5° (Epoch: 14 August)

Event Time Altitude Azimuth Distance (km) Brightness Sun altitude
Rises 02:37:45 0° 190° (S) 2,922 6.8 -5.7°
Reaches altitude 10° 02:39:59 10° 192° (SSW) 2,017 6.0 -6.1°
Maximum altitude 02:44:28 74° 278° (W) 664 3.9 -6.7°
Drops below altitude 10° 02:48:58 10° 4° (N) 2,023 6.7 -7.4°
Sets 02:51:12 0° 6° (N) 2,931 7.5 -7.8°
